Skip Page Navigation
NASA JPL Caltech
NASA Logo - Jet Propulsion Laboratory + View the NASA Portal
+ Near-Earth Object (NEO) Program
Search JPL
JPL Home Earth Solar System Stars & Galaxies Technology
JPL Solar System Dynamics
BODIES ORBITS EPHEMERIDES TOOLS PHYSICAL DATA DISCOVERY FAQ SITE MAP
JPL Small-Body Database Browser
Search: [ help ]  
19612 Noordung (1999 OO)
Classification: Main-belt Asteroid          SPK-ID: 2019612
Ephemeris | Orbit Diagram | Orbital Elements | Physical Parameters | Discovery Circumstances | Close-Approach Data ]

[ show orbit diagram ]
Orbital Elements at Epoch 2456400.5 (2013-Apr-18.0) TDB
Reference: JPL 1 (heliocentric ecliptic J2000)
 Element Value Uncertainty (1-sigma)   Units 
e .1207613107540644 6.565e-08  
a 2.38510159364369 2.2082e-08 AU
q 2.097073598913671 1.61e-07 AU
i 5.888529687891346 7.2989e-06 deg
node 275.597985634251 6.9172e-05 deg
peri 19.23603894978287 7.8767e-05 deg
M 264.8455251951952 4.3398e-05 deg
tp 2456756.119417734692
(2014-Apr-08.61941773)
0.00016524 JED
period 1345.422699742803
3.68
1.8685e-05
5.116e-08
d
yr
n .2675739008036799 3.7159e-09 deg/d
Q 2.67312958837371 2.4749e-08 AU
  Orbit Determination Parameters
   # obs. used (total)      822  
   data-arc span      9003 days (24.65 yr)  
   first obs. used      1988-08-11  
   last obs. used      2013-04-05  
   planetary ephem.      DE405  
   SB-pert. ephem.      SB405-CPV-2  
   condition code      0  
   fit RMS      .53585  
   data source      ORB  
   producer      Otto Matic  
   solution date      2013-Apr-29 14:23:11  

Additional Information
 Earth MOID = 1.08202 AU 
 T_jup = 3.519 
[ show covariance matrix ]

Ephemeris | Orbit Diagram | Orbital Elements | Physical Parameters | Discovery Circumstances | Close-Approach Data ]

Physical Parameter Table
Parameter Symbol Value Units Sigma Reference Notes
absolute magnitude H 13.9 mag n/a PDS3 (MPO 6601)  

19612 Noordung           Discovered 1999 July 17 at the Crni Vrh Observatory.
At the end of 1928 Herman Potocnik (1892-1929) published under the pseudonym Hermann Noordung a visionary work entitled Das Problem der Befahrung des Weltraums---der Raketen-motor. In this work he was the first to detail a technical description of a space station in a geostationary orbit and its applications.
NOTE: some special characters may not display properly (any characters within {} are an attempt to place the proper accent above a character)
Reference: 20070402/MPCPages.arcLast Updated: 2007-07-05

[ show close-approach data ]
Alternate Designations
 1999 OO = 1994 BE3 
Ephemeris | Orbit Diagram | Orbital Elements | Physical Parameters | Discovery Circumstances | Close-Approach Data ]
ABOUT SSD CREDITS/AWARDS PRIVACY/COPYRIGHT GLOSSARY LINKS
FirstGov 2013-May-20 02:23 UT
(server date/time)  
NASA Home Page
Site Manager:   Donald K. Yeomans
Webmaster  Alan B. Chamberlin